User: anonymous   Login
Location: Unspecified
(0.0000°N, 0.0000°E)
Time: 01:49:33
(UTC+00:00)
Language:

PAYLOAD C - Orbit

View from above orbital plane
View from above orbital plane
View from above satellite
View from above satellite

Ground track
Ground track

The orbit data is extracted from the following two-line orbital elements,

1 27057U 01058C   23088.48589338  .00000034  00000-0  13231-3 0  9994
2 27057  82.5410 246.8024 0000916 138.8332 221.2828 12.61574265978258
Epoch (UTC): 29 March 2023 11:39:41
Eccentricity: 0.0000916
inclination: 82.5410°
perigee height: 1416 km
apogee height: 1417 km
right ascension of ascending node: 246.8024°
argument of perigee: 138.8332°
revolutions per day: 12.61574265
mean anomaly at epoch: 221.2828°
orbit number at epoch: 97825

The dashed part of the orbit path shows where the satellite is in the earth's shadow,  

DLR